User: anonymous   Login
Location: Cheching
(60.0667°N, 164.2167°W)
Time: 17:52:23
(UTC+00:00)
Language:

XW-2D - Orbit

View from above orbital plane
View from above orbital plane
View from above satellite
View from above satellite

Ground track
Ground track

The orbit data is extracted from the following two-line orbital elements,

1 40907U 15049J   21129.17274507  .00000900  00000-0  48922-4 0  9995
2 40907  97.4859 131.8016 0013011 326.8096 102.4204 15.16986955311647
Epoch (UTC): 09 May 2021 04:08:45
Eccentricity: 0.0013011
inclination: 97.4859°
perigee height: 506 km
apogee height: 524 km
right ascension of ascending node: 131.8016°
argument of perigee: 326.8096°
revolutions per day: 15.16986955
mean anomaly at epoch: 102.4204°
orbit number at epoch: 31164

The dashed part of the orbit path shows where the satellite is in the earth's shadow,  

DLR